Terminal Aerodrome Forecast
Issued by NWS Cleveland, OH

Home | Current Version | Previous Version | Graphics & Text | Print | Product List | Glossary On
Versions: 1 2 3 4 5 6 7 8 9 10 11 12 13 14 15 16 17 18 19 20
000
FTUS41 KCLE 020522
TAFMFD
TAF
KMFD 020522Z 0206/0306 23014KT P6SM OVC015
      TEMPO 0207/0211 SCT020 BKN040
     FM021800 25014G22KT P6SM SCT025 OVC040=

USA.gov is the U.S. government's official web portal to all federal, state and local government web resources and services.